This demonstration page uses our WeatherBlox Daily Observations layout. Learn more.

Left ArrowRight Arrow

Hourly Observations for April 12, 2019

Temp ( °F °C ) Dew Point ( °F °C ) Humidity (%) Winds ( mph kmh ) Pressure ( in mb ) Visibility ( mi km ) Precip ( " mm )
12:15 am 00:15 Clear 26 -3.2 19 -7 75 75 WNW 24 39 29.82 1010 10 16 0.00 0.00
12:35 am 00:35 Mostly Cloudy 26 -3.2 19 -7 75 75 WNW 22 35 29.82 1010 10 16 0.00 0.00
12:55 am 00:55 Mostly Cloudy 26 -3.2 19 -7.2 74 74 WNW 25 41 29.82 1010 10 16 0.00 0.00
1:15 am 01:15 Partly Cloudy 26 -3.2 19 -7.1 75 75 WNW 25 41 29.82 1010 10 16 0.00 0.00
1:35 am 01:35 Partly Cloudy 26 -3.3 19 -7.1 75 75 WNW 22 35 29.82 1010 10 16 0.00 0.00
1:55 am 01:55 Clear 26 -3.5 19 -7.2 76 76 WNW 21 33 29.82 1010 10 16 0.00 0.00
2:15 am 02:15 Clear 25 -3.7 19 -7.3 76 76 WNW 21 33 29.82 1010 10 16 0.00 0.00
2:35 am 02:35 Clear 26 -3.5 19 -7.1 76 76 WNW 22 35 29.83 1010 10 16 0.00 0.00
2:55 am 02:55 Clear 26 -3.2 19 -7.1 75 75 WNW 22 35 29.82 1010 10 16 0.00 0.00
3:15 am 03:15 Clear 26 -3.2 19 -7.3 74 74 WNW 23 37 29.83 1010 10 16 0.00 0.00
3:35 am 03:35 Clear 26 -3.2 19 -7.5 72 72 WNW 22 35 29.83 1010 10 16 0.00 0.00
3:55 am 03:55 Clear 27 -3 19 -7.5 71 71 WNW 23 37 29.83 1010 10 16 0.00 0.00
4:15 am 04:15 Clear 27 -3 19 -7.5 71 71 WNW 20 31 29.83 1010 10 16 0.00 0.00
4:35 am 04:35 Clear 27 -2.9 19 -7.3 72 72 WNW 22 35 29.82 1010 10 16 0.00 0.00
4:55 am 04:55 Clear 27 -3 19 -7.2 73 73 WNW 17 28 29.84 1010 10 16 0.00 0.00
5:15 am 05:15 Clear 27 -2.7 19 -7.2 71 71 WNW 21 33 29.84 1011 10 16 0.00 0.00
5:35 am 05:35 Clear 28 -2.5 19 -7.1 71 71 WNW 20 31 29.85 1011 10 16 0.00 0.00
5:55 am 05:55 Clear 27 -2.6 19 -7 72 72 WNW 21 33 29.85 1011 10 16 0.00 0.00
6:15 am 06:15 Clear 28 -2.5 19 -7 72 72 W 20 31 29.86 1011 10 16 0.00 0.00
6:35 am 06:35 Partly Cloudy 28 -2.5 19 -7 72 72 WNW 22 35 29.87 1012 10 16 0.00 0.00
6:55 am 06:55 Partly Cloudy 28 -2.3 20 -6.8 72 72 W 21 33 29.88 1012 10 16 0.00 0.00
7:15 am 07:15 Sunny 28 -2.5 20 -6.7 73 73 W 17 28 29.89 1012 10 16 0.00 0.00
7:35 am 07:35 Sunny 28 -2.2 20 -6.5 73 73 WNW 22 35 29.90 1012 10 16 0.00 0.00
7:55 am 07:55 Partly Cloudy 29 -1.7 21 -6.1 72 72 W 21 33 29.90 1013 10 16 0.00 0.00
8:15 am 08:15 Mostly Cloudy 29 -1.6 21 -6.1 72 72 WNW 20 31 29.90 1013 10 16 0.00 0.00
8:35 am 08:35 Mostly Cloudy 29 -1.4 22 -5.8 72 72 WNW 21 33 29.92 1013 10 16 0.00 0.00
8:55 am 08:55 Partly Cloudy 30 -1 22 -5.7 71 71 WNW 20 31 29.93 1013 10 16 0.00 0.00
9:15 am 09:15 Sunny 31 -0.3 22 -5.3 69 69 WNW 20 31 29.93 1014 10 16 0.00 0.00
9:35 am 09:35 Partly Cloudy 32 0 23 -5.1 69 69 WNW 20 31 29.93 1013 10 16 0.00 0.00
9:55 am 09:55 Partly Cloudy 33 0.4 23 -5 67 67 W 24 39 29.93 1014 10 16 0.00 0.00
10:15 am 10:15 Mostly Cloudy 33 0.5 23 -4.8 68 68 WNW 23 37 29.94 1014 10 16 0.00 0.00
10:35 am 10:35 Mostly Cloudy 33 0.8 23 -4.9 66 66 WNW 26 43 29.95 1014 10 16 0.00 0.00
10:55 am 10:55 Partly Cloudy 34 1.1 24 -4.6 66 66 WNW 23 37 29.96 1014 10 16 0.00 0.00
11:15 am 11:15 Mostly Cloudy 34 1.1 24 -4.6 66 66 WNW 26 43 29.97 1015 10 16 0.00 0.00
11:35 am 11:35 Partly Cloudy 35 1.5 24 -4.2 66 66 WNW 25 41 29.97 1015 10 16 0.00 0.00
11:55 am 11:55 Partly Cloudy 35 1.8 24 -4.4 64 64 WNW 26 43 29.97 1015 10 16 0.00 0.00
12:15 pm 12:15 Partly Cloudy 36 2.1 24 -4.2 63 63 WNW 21 33 29.97 1015 10 16 0.00 0.00
12:35 pm 12:35 Partly Cloudy 37 2.6 25 -3.9 63 63 WNW 24 39 29.97 1015 10 16 0.00 0.00
12:55 pm 12:55 Sunny 37 2.7 25 -3.9 62 62 NW 21 33 29.97 1015 10 16 0.00 0.00
1:15 pm 13:15 Partly Cloudy 37 3 25 -3.7 62 62 NW 24 39 29.97 1015 10 16 0.00 0.00
1:35 pm 13:35 Mostly Cloudy 39 3.8 26 -3.4 60 60 NW 22 35 29.96 1015 10 16 0.00 0.00
1:55 pm 13:55 Mostly Cloudy 40 4.2 27 -2.6 62 62 WNW 21 33 29.96 1014 10 16 0.00 0.00
2:15 pm 14:15 Mostly Cloudy 40 4.3 26 -3.2 59 59 NW 20 31 29.96 1015 10 16 0.00 0.00
2:35 pm 14:35 Mostly Cloudy 41 4.9 28 -2.5 59 59 NW 21 33 29.96 1015 10 16 0.00 0.00
2:55 pm 14:55 Mostly Cloudy 41 4.8 27 -3 57 57 NW 20 31 29.97 1015 10 16 0.00 0.00
3:15 pm 15:15 Partly Cloudy 40 4.7 26 -3.4 56 56 WNW 15 24 29.97 1015 10 16 0.00 0.00
3:35 pm 15:35 Partly Cloudy 41 5.2 26 -3.4 54 54 WNW 17 28 29.97 1015 10 16 0.00 0.00
3:55 pm 15:55 Sunny 41 5.1 26 -3.6 54 54 WNW 21 33 29.97 1015 10 16 0.00 0.00
4:15 pm 16:15 Sunny 41 5 25 -3.9 53 53 NW 20 31 29.97 1015 10 16 0.00 0.00
4:35 pm 16:35 Partly Cloudy 41 5.2 26 -3.3 55 55 NW 16 26 29.97 1015 10 16 0.00 0.00
4:55 pm 16:55 Partly Cloudy 42 5.3 27 -2.9 56 56 WNW 14 22 29.97 1015 10 16 0.00 0.00
5:15 pm 17:15 Mostly Cloudy 42 5.5 26 -3.3 53 53 NW 15 24 29.96 1015 10 16 0.00 0.00
5:35 pm 17:35 Partly Cloudy 42 5.3 26 -3.5 53 53 NNW 13 20 29.98 1015 10 16 0.00 0.00
5:55 pm 17:55 Mostly Cloudy 41 5 25 -4.1 52 52 NW 13 20 29.99 1016 10 16 0.00 0.00
6:15 pm 18:15 Mostly Cloudy 41 5.1 26 -3.3 55 55 NNW 10 17 30.00 1016 10 16 0.00 0.00
6:35 pm 18:35 Partly Cloudy 41 4.9 25 -3.8 54 54 NNW 9 15 30.00 1016 10 16 0.00 0.00
6:55 pm 18:55 Sunny 40 4.7 25 -3.8 54 54 NW 6 9 30.01 1016 10 16 0.00 0.00
7:15 pm 19:15 Sunny 40 4.5 25 -3.8 55 55 NNW 7 11 30.01 1016 10 16 0.00 0.00
7:35 pm 19:35 Sunny 39 4.1 25 -3.8 57 57 NW 3 6 30.03 1017 10 16 0.00 0.00
7:55 pm 19:55 Sunny 38 3.6 26 -3.3 61 61 Calm 30.03 1017 10 16 0.00 0.00
8:15 pm 20:15 Sunny 36 2.3 28 -2.1 73 73 NW 3 6 30.05 1018 10 16 0.00 0.00
8:35 pm 20:35 Clear 35 1.9 26 -3.1 70 70 NW 3 6 30.07 1018 10 16 0.00 0.00
8:55 pm 20:55 Clear 35 1.5 26 -3.1 72 72 NNW 6 9 30.08 1019 10 16 0.00 0.00
9:15 pm 21:15 Clear 32 0.2 27 -2.8 81 81 N 8 13 30.11 1019 10 16 0.00 0.00
9:35 pm 21:35 Clear 33 0.3 27 -2.8 80 80 N 8 13 30.12 1020 10 16 0.00 0.00
9:55 pm 21:55 Clear 32 0.1 27 -2.8 81 81 N 7 11 30.14 1021 10 16 0.00 0.00
10:15 pm 22:15 Clear 32 -0.1 27 -3 81 81 N 7 11 30.15 1021 10 16 0.00 0.00
10:35 pm 22:35 Clear 31 -0.5 26 -3.1 83 83 N 3 6 30.15 1021 10 16 0.00 0.00
10:55 pm 22:55 Clear 31 -0.7 26 -3.2 83 83 Calm 30.16 1021 10 16 0.00 0.00
11:15 pm 23:15 Clear 31 -0.5 26 -3.2 82 82 NW 3 6 30.16 1021 10 16 0.00 0.00
11:35 pm 23:35 Clear 30 -1.1 26 -3.3 85 85 NW 3 6 30.18 1022 10 16 0.00 0.00
11:55 pm 23:55 Clear 30 -1.2 26 -3.1 87 87 Calm 30.17 1022 10 16 0.00 0.00

Powered by AerisWeather